Fairchild AFB, WA

11:39 AM PST on December 10, 2016 (GMT -0800)
Fairchild Air Force Base

Weather History for KSKA - October, 2012

Change the Weather History Date:

Wednesday, October 3, 2012

  Actual Average Record
Temperature  
Mean Temperature 44 °F -  
Max Temperature 57 °F 63 °F 78 °F (2003)
Min Temperature 32 °F 40 °F 31 °F (2013)
Degree Days  
Heating Degree Days 21    
Moisture  
Dew Point 25 °F    
Average Humidity 50    
Maximum Humidity 73    
Minimum Humidity 30    
Precipitation  
Precipitation 0.00 in - - ()
Sea Level Pressure  
Sea Level Pressure 30.35 in    
Wind  
Wind Speed 7 mph (North)    
Max Wind Speed 12 mph    
Max Gust Speed 17 mph    
Visibility 10 miles    
Events      
Averages and records for this station are not official NWS values.
T = Trace of Precipitation, MM = Missing Value Source: NWS Daily Summary

Daily Weather History Graph

Daily Weather History Graph

Search for Another Location

Airport or City:

Trip Planner

Search our weather history database for the weather conditions in past years. The results will help you decide how hot, cold, wet, or windy it might be!

Date:

Astronomy

Oct. 03, 2012 Rise Set
Actual Time 6:53 AM PDT 6:24 PM PDT
Civil Twilight 6:22 AM PDT 6:55 PM PDT
Nautical Twilight 5:46 AM PDT 7:31 PM PDT
Astronomical Twilight 5:10 AM PDT 8:07 PM PDT
Moon 8:02 PM PDT (10/3) 10:38 AM PDT (10/3)
Length of Visible Light 12h 32m
Length of Day
11h 31m
Waning Gibbous, 88% of the Moon is Illuminated
Oct 3
Waning Gibbous
Oct 8
Last Quarter
Oct 15
New
Oct 21
First Quarter
Oct 29
Full

Hourly Weather History & Observations

Time (PDT) Temp. Windchill Dew Point Humidity Pressure Visibility Wind Dir Wind Speed Gust Speed Precip Events Conditions
12:55 AM 37.8 °F 33.3 °F 17.4 °F 44% 30.22 in 10.0 mi West 5.8 mph - N/A   Clear
1:18 AM 35.6 °F 30.7 °F 17.6 °F 48% 30.23 in 10.0 mi NW 5.8 mph - N/A   Clear
1:27 AM 35.6 °F 30.7 °F 17.6 °F 48% 30.25 in 10.0 mi NNW 5.8 mph - N/A   Scattered Clouds
1:46 AM 37.4 °F 31.4 °F 19.4 °F 48% 30.24 in 10.0 mi NW 8.1 mph - N/A   Partly Cloudy
1:55 AM 37.8 °F 34.2 °F 20.5 °F 50% 30.25 in 10.0 mi NNW 4.6 mph - 0.00 in   Clear
1:59 AM 37.4 °F 33.8 °F 23.0 °F 56% 30.25 in 10.0 mi North 4.6 mph - N/A   Clear
2:34 AM 39.2 °F 33.6 °F 28.4 °F 65% 30.27 in 10.0 mi NW 8.1 mph - N/A   Clear
2:51 AM 35.6 °F 31.7 °F 26.6 °F 70% 30.28 in 10.0 mi West 4.6 mph - N/A   Clear
2:55 AM 36.3 °F 33.7 °F 25.9 °F 66% 30.28 in 10.0 mi West 3.5 mph - 0.00 in   Clear
3:55 AM 32.5 °F 25.5 °F 22.1 °F 65% 30.31 in 10.0 mi NW 8.1 mph - 0.00 in   Clear
4:07 AM 32.0 °F 24.2 °F 21.2 °F 64% 30.32 in 10.0 mi NW 9.2 mph - N/A   Clear
4:55 AM 37.6 °F 30.5 °F 23.2 °F 56% 30.34 in 10.0 mi NNW 10.4 mph - 0.00 in   Clear
5:55 AM 36.0 °F 29.0 °F 24.3 °F 63% 30.36 in 10.0 mi North 9.2 mph - N/A   Clear
6:55 AM 35.2 °F 28.1 °F 27.5 °F 73% 30.40 in 10.0 mi North 9.2 mph - N/A   Clear
7:55 AM 39.7 °F 34.9 °F 27.9 °F 63% 30.42 in 10.0 mi North 6.9 mph - N/A   Clear
8:55 AM 43.9 °F 38.8 °F 27.5 °F 53% 30.43 in 10.0 mi NNE 9.2 mph - N/A   Clear
9:55 AM 47.1 °F - 29.5 °F 50% 30.45 in 10.0 mi NNE 10.4 mph - N/A   Clear
10:55 AM 51.1 °F - 27.3 °F 40% 30.45 in 10.0 mi NE 10.4 mph - N/A   Clear
11:55 AM 52.5 °F - 27.3 °F 38% 30.45 in 10.0 mi NE 9.2 mph - N/A   Clear
12:55 PM 54.3 °F - 28.0 °F 36% 30.44 in 10.0 mi NE 8.1 mph - N/A   Clear
1:55 PM 55.0 °F - 26.8 °F 34% 30.42 in 10.0 mi Variable 4.6 mph - N/A   Clear
2:55 PM 56.5 °F - 26.4 °F 32% 30.40 in 10.0 mi ENE 9.2 mph 17.3 mph N/A   Clear
3:55 PM 56.5 °F - 26.4 °F 32% 30.40 in 10.0 mi NE 8.1 mph - N/A   Clear
4:55 PM 56.5 °F - 25.2 °F 30% 30.38 in 10.0 mi NNE 8.1 mph - N/A   Clear
5:55 PM 54.0 °F - 25.0 °F 33% 30.39 in 10.0 mi NNE 9.2 mph - N/A   Clear
6:55 PM 50.2 °F - 24.1 °F 36% 30.39 in 10.0 mi NNE 10.4 mph - N/A   Clear
7:55 PM 47.7 °F - 24.1 °F 40% 30.38 in 10.0 mi NNE 8.1 mph - N/A   Clear
8:55 PM 46.0 °F 40.6 °F 25.2 °F 44% 30.38 in 10.0 mi NNE 11.5 mph - N/A   Clear
9:55 PM 41.9 °F 36.9 °F 26.1 °F 53% 30.37 in 10.0 mi NNE 8.1 mph - N/A   Clear
10:55 PM 40.8 °F 35.6 °F 26.2 °F 56% 30.37 in 10.0 mi NNE 8.1 mph - N/A   Clear
11:55 PM 40.1 °F 34.1 °F 26.6 °F 59% 30.36 in 10.0 mi North 9.2 mph - N/A   Clear